SCP
-0 -0 -0 -0 -0 -0 -0 -0 -0 -0 -0 -0 0 0 0 -0 -0 -0 0 0 -0 -0 0 0 0 0 0 0 0 0 0 0 0 -0 -0 -0 -0 -0 -0 -0 -0 0 -0
-0 -0 -0 -0 -0 -0 -0 -0 -0 -0 -0 -0 -0 0 -0 0 0 -0 0 0 0 -0 0 0 0 0 0 0 0 0 0 0 0 0 0 -0 -0 -0 -0 -0 -0 -0 -0
-0 -0 -0 -0 -0 -0 -0 -0 -0 -0 -0 -0 -0 -0 -0 -0 0 0 0 0 0 0 0 0 0 0 0 0 0 0 0 0 0 0 0 0 0 -0 -0 0 0 0 0
-0 -0 -0 -0 -1 -1 -1 -1 -0 -0 -0 -0 -0 -0 -0 0 0 0 0 0 0 0 0 0 0 0 0 0 0 0 0 0 0 0 -0 0 0 0 -0 0 0 0 0
-0 -0 -0 -0 -0 -0 -1 -1 -0 -0 -0 -0 -0 -0 -0 0 0 0 0 0 0 0 0 0 0 0 0 0 0 0 0 0 0 0 0 0 0 0 0 0 0 0 0
-0 -0 -0 -0 -0 -0 -0 -0 -0 -0 -0 -0 -0 -0 -0 -0 0 0 0 0 0 0 0 0 0 0 0 0 0 0 0 0 0 0 0 0 0 0 0 0 0 0 0
0 0 -0 -0 -0 -0 -0 -0 -0 -0 -0 -0 -0 -0 -0 -0 0 0 0 0 0 0 0 0 0 0 0 0 0 0 0 0 0 0 0 0 0 0 0 0 0 0 0
0 0 -0 -0 -0 -0 -0 -0 -0 0 0 0 0 -0 -0 -0 0 0 0 0 0 0 0 0 0 0 0 0 0 0 0 0 0 0 0 0 0 0 0 0 0 0 0
0 0 0 0 -0 -0 -0 -0 -0 -0 0 0 0 0 0 0 0 0 0 0 0 0 0 0 0 0 0 0 0 0 0 0 0 0 0 0 0 0 0 0 0 0 0
0 0 0 0 0 0 0 -0 -0 0 0 0 0 0 0 0 0 0 0 0 0 0 0 0 0 0 0 0 0 0 0 0 0 0 0 0 0 0 0 0 0 0 0
0 0 0 0 0 0 0 0 0 0 0 0 0 0 0 0 0 0 0 0 0 0 0 0 0 0 0 0 0 0 0 0 0 0 0 0 0 0 0 0 0 0 0
0 0 0 0 0 0 0 0 0 0 0 0 0 0 0 0 0 0 0 0 0 0 0 0 0 0 0 0 0 0 0 0 0 0 0 0 0 0 0 0 0 0 0
0 0 0 0 0 0 0 0 0 0 0 0 0 0 0 0 0 0 0 0 0 0 0 0 0 0 0 0 0 0 0 0 0 0 0 0 0 0 0 0 0 0 0
0 0 0 0 0 0 0 0 0 0 0 0 0 0 0 0 0 0 0 0 0 0 0 0 0 0 0 0 0 0 0 0 0 0 0 0 0 0 0 0 0 0 0
0 0 0 0 0 0 0 0 0 0 0 0 0 0 0 0 0 0 0 0 0 0 0 0 0 0 0 0 0 0 0 0 0 0 0 0 0 0 0 0 0 0 0
0 0 0 0 0 0 0 0 0 0 0 0 0 0 0 0 0 0 0 0 0 0 0 0 0 0 0 0 0 0 0 0 0 0 0 0 0 0 0 0 0 0 0
0 0 0 0 0 0 0 0 0 0 0 0 0 0 0 0 0 0 0 0 0 0 0 0 0 0 0 0 0 0 0 0 0 0 0 0 0 0 0 0 0 0 0
0 0 0 0 0 0 0 0 0 0 0 0 0 0 0 0 0 0 0 0 0 0 0 0 0 0 0 0 0 0 0 0 0 0 0 0 0 0 0 0 0 0 0
0 0 0 0 0 0 0 0 0 0 0 0 0 0 0 0 0 0 0 0 0 0 0 0 0 0 0 0 0 0 0 0 0 0 0 0 0 0 0 0 0 0 0
0 0 0 0 0 0 0 0 0 0 0 0 0 0 0 0 0 0 0 0 0 0 0 0 0 0 0 0 0 0 0 0 0 0 0 0 0 0 0 0 0 0 0
0 0 0 0 0 0 0 0 0 0 0 0 0 0 0 0 0 0 0 0 0 0 0 0 0 0 0 0 0 0 0 0 0 0 0 0 0 0 0 0 0 0 0
0 0 0 0 0 0 0 0 0 0 0 0 0 0 0 0 0 0 0 0 0 0 0 0 0 0 0 0 0 0 0 0 0 0 0 0 0 0 0 0 0 0 0
0 0 0 0 0 0 0 0 0 0 0 0 0 0 0 0 0 0 0 0 0 0 0 0 0 0 0 0 0 0 0 0 0 0 0 0 0 0 0 0 0 0 0
0 0 0 0 0 0 0 0 0 0 0 0 0 0 0 0 0 0 0 0 0 0 0 0 0 0 0 0 0 0 0 0 0 0 0 0 0 0 0 0 0 0 0
0 0 0 0 0 0 0 0 0 0 0 0 0 0 0 0 0 0 0 0 0 0 0 0 0 0 0 0 0 0 0 0 0 0 0 0 0 0 0 0 0 0 0
0 0 0 0 0 0 0 0 0 0 0 0 0 0 0 0 0 0 0 0 0 0 0 0 0 0 0 0 0 0 0 0 0 0 0 0 0 0 0 0 0 0 0
Wind_Speed_500mb
29 37 39 38 37 39 38 38 33 28 23 20 17 15 14 13 13 14 9 4 2 1 4 5 7 8 7 8 7 9 10 13 18 16 17 15 19 18 17 19 17 14 13
24 37 41 40 38 37 38 36 34 29 25 22 19 16 16 17 17 14 12 10 7 2 1 2 5 5 6 6 6 9 11 14 18 18 13 11 11 12 16 19 17 18 16
24 32 42 41 39 37 35 34 32 30 27 24 21 20 17 15 14 12 10 6 6 3 3 2 2 3 2 1 3 7 11 15 17 16 12 9 6 9 12 14 15 15 14
15 28 41 42 39 38 36 34 31 29 27 25 24 22 20 14 15 14 13 14 13 8 7 4 3 4 3 2 4 8 12 15 14 12 13 8 4 5 13 15 12 10 10
15 22 37 42 41 39 37 35 34 31 28 26 24 25 22 14 17 18 18 19 19 10 7 6 6 6 4 5 8 12 16 18 14 11 19 8 1 2 5 12 11 10 6
15 19 31 42 43 42 40 38 35 32 30 27 26 27 25 20 19 20 22 23 22 14 9 9 8 7 5 6 10 15 20 21 18 15 13 11 8 9 16 12 10 8 7
17 20 26 40 44 43 42 40 38 35 32 29 30 28 24 23 25 20 23 24 20 15 12 11 9 6 4 6 9 14 18 22 21 19 19 18 15 15 17 10 11 9 7
14 19 24 30 42 44 44 43 40 37 35 31 31 30 28 27 30 16 21 21 19 16 14 10 9 7 7 8 9 11 16 18 19 20 21 19 22 21 22 5 9 11 11
14 19 24 28 35 44 46 45 44 42 39 36 35 35 31 29 31 18 21 21 19 17 14 12 10 10 11 10 10 10 14 16 16 19 22 23 20 26 27 21 13 13 14
18 21 23 28 33 38 45 47 46 44 42 41 41 38 35 36 37 22 21 21 20 19 15 13 14 14 14 13 12 13 15 17 17 18 20 23 24 25 27 23 18 18 19
24 26 27 30 33 37 40 45 48 47 44 43 43 41 43 43 40 29 23 23 21 21 17 15 17 18 18 16 15 15 16 18 17 17 18 21 23 22 24 23 21 20 19
31 30 33 35 35 36 41 45 50 48 46 45 46 45 47 47 42 35 26 29 27 25 22 19 21 22 21 20 19 19 19 20 18 18 20 20 22 21 23 23 23 23 19
41 32 34 37 39 39 42 44 51 53 49 49 49 50 49 49 46 42 35 34 32 30 28 25 25 26 25 24 23 22 23 23 20 21 22 23 23 22 22 23 25 24 21
41 38 34 31 34 38 40 42 47 54 54 54 54 53 53 53 50 47 42 37 38 33 31 30 29 32 31 30 28 28 27 26 24 24 24 25 25 25 25 26 25 24 23
42 39 37 33 30 30 34 37 43 47 51 54 54 55 54 55 53 51 50 48 44 40 35 34 34 37 37 36 34 33 32 31 29 27 27 27 27 27 27 28 26 24 23
39 43 39 41 33 31 32 31 34 40 40 41 43 46 51 52 52 54 57 57 50 45 39 39 39 40 41 42 41 39 38 36 34 32 31 30 30 29 29 30 30 27 27
32 37 33 31 30 31 32 30 28 32 38 38 39 36 37 48 51 49 45 48 46 42 41 43 44 45 46 47 46 45 44 42 41 39 37 35 34 33 32 33 34 28 29
14 26 26 26 19 21 30 29 26 29 35 34 35 36 36 41 44 44 45 46 43 39 42 45 47 47 46 49 50 50 50 49 47 45 44 42 39 38 38 37 39 36 36
13 13 23 23 21 24 29 28 27 26 29 29 31 32 33 35 38 43 41 39 40 39 43 46 48 49 49 51 52 55 57 56 53 52 50 49 45 44 42 40 42 38 43
16 15 17 17 18 22 21 19 19 20 20 24 23 23 27 30 32 35 37 38 41 43 45 47 49 51 53 53 55 58 61 62 61 61 59 56 52 52 47 44 44 47 54
19 15 15 12 11 9 14 18 15 15 14 16 18 21 21 23 24 28 31 34 38 42 43 44 48 51 55 55 58 63 67 68 69 69 68 63 63 60 56 51 49 52 58
50 42 32 27 20 17 12 10 9 14 15 16 20 23 23 25 21 17 23 29 33 37 40 43 48 52 53 54 57 63 61 64 72 78 75 71 68 67 66 61 57 58 61
60 58 53 48 41 33 22 12 8 6 5 8 11 13 15 18 20 18 15 19 25 33 37 39 43 49 55 53 56 57 26 23 37 47 59 69 76 77 74 70 66 65 66
52 47 45 44 44 42 35 31 24 22 20 22 19 14 7 8 13 16 17 19 23 30 34 36 38 43 49 55 56 61 66 77 76 59 49 37 52 71 78 78 75 74 73
44 44 42 38 38 37 34 31 28 28 29 24 20 19 16 11 11 15 21 24 25 26 28 30 35 41 48 54 57 58 64 70 78 90 84 75 74 64 64 72 77 79 79
37 37 36 35 36 34 30 30 29 27 24 20 21 24 26 25 22 21 19 22 26 29 32 35 36 34 39 50 56 60 64 71 69 72 84 94 96 92 89 83 82 80 81
Wind_Direction_500mb
173 181 188 185 188 189 186 181 179 180 180 179 175 174 170 165 153 153 173 195 195 21 19 34 74 83 90 97 111 112 112 117 117 110 99 98 101 97 86 91 89 99 98
175 177 190 192 195 196 194 190 186 184 187 189 186 189 191 189 178 181 205 215 236 272 311 39 51 58 65 83 108 117 118 128 134 140 127 111 134 119 104 96 97 82 88
173 181 189 196 200 201 201 199 196 193 193 195 196 201 197 198 191 187 186 245 279 260 259 281 20 19 25 71 148 141 144 147 147 139 117 73 129 157 147 126 120 133 114
173 187 190 198 203 206 207 206 204 203 203 203 204 208 218 204 206 225 247 264 271 264 225 255 300 313 297 210 209 183 170 173 171 152 143 116 86 148 170 164 161 162 152
187 192 198 202 206 209 212 212 210 212 213 213 212 207 220 210 214 230 241 252 264 273 257 262 286 281 270 248 207 198 192 195 195 164 151 136 115 174 157 168 180 192 202
212 199 201 207 209 211 214 216 218 220 217 212 210 205 233 235 233 234 239 244 257 261 261 276 276 271 255 220 206 199 201 206 209 201 186 167 199 223 274 216 184 195 214
222 214 208 209 213 215 217 218 219 221 221 215 216 222 226 253 256 246 229 235 246 255 264 272 267 263 219 200 191 196 206 208 213 218 216 213 216 250 266 207 199 208 221
234 225 219 215 217 219 219 221 222 224 222 218 223 226 242 254 261 236 234 235 247 255 264 258 255 237 212 204 197 197 212 216 215 221 225 228 234 239 265 251 231 241 241
239 234 229 225 220 222 224 223 224 226 226 221 226 235 246 247 260 252 245 240 249 260 264 265 257 221 209 208 214 215 224 231 225 230 235 241 242 247 266 281 257 255 256
257 247 239 233 231 227 225 226 227 228 227 224 226 235 240 250 261 267 252 249 254 256 254 250 234 221 220 221 225 227 235 243 242 244 243 247 253 256 262 267 260 257 255
270 262 250 241 237 234 233 230 228 226 227 225 227 231 236 245 257 268 276 257 253 255 255 245 232 226 227 230 235 241 245 250 252 255 251 251 256 262 262 265 264 261 263
273 280 271 255 245 239 235 233 231 230 221 224 228 232 235 243 253 261 272 265 263 263 260 248 234 233 235 239 242 245 248 251 254 256 255 256 258 258 262 266 267 267 266
285 269 275 265 253 246 240 235 230 231 231 228 230 234 240 245 252 259 264 269 261 260 261 255 246 243 244 247 250 251 250 255 258 258 258 261 261 260 260 263 267 268 266
285 282 269 269 259 255 250 241 235 233 234 235 237 240 242 248 254 259 265 274 270 261 257 254 247 245 246 249 251 252 253 256 258 261 263 266 266 264 262 262 265 264 264
267 276 267 257 261 255 257 254 242 236 234 237 239 243 245 248 254 260 268 273 275 263 259 259 253 249 249 250 251 253 255 257 259 260 262 262 263 263 264 269 270 269 267
266 261 264 254 258 256 256 262 261 249 242 239 240 243 245 241 248 258 267 272 274 263 260 262 260 256 254 254 254 255 256 258 258 258 259 260 261 262 263 263 266 265 248
281 256 249 245 249 252 254 259 266 263 255 253 251 250 249 247 252 270 272 272 279 259 261 262 261 257 253 252 253 255 255 255 256 258 259 259 259 259 258 258 260 258 237
251 237 223 209 215 238 241 248 257 262 253 248 251 248 259 251 251 272 277 278 285 270 267 266 264 263 262 259 257 255 254 254 255 256 257 257 257 258 256 255 253 253 243
81 152 181 185 184 197 222 232 239 245 249 250 255 259 259 262 266 270 273 275 277 273 275 275 270 268 267 267 267 264 261 257 254 254 255 256 256 255 253 251 249 244 251
96 113 137 148 154 176 196 215 227 232 232 240 247 247 256 264 269 274 273 269 270 273 281 281 279 277 275 273 270 266 262 261 260 259 258 257 258 256 255 252 246 242 247
108 119 116 132 125 171 189 194 194 204 215 221 236 251 256 263 273 279 279 278 282 282 285 286 283 280 279 278 276 272 268 264 259 258 257 257 257 258 256 253 249 246 254
77 78 81 83 86 93 99 129 177 211 223 238 244 246 254 258 263 282 289 283 282 282 282 278 279 283 283 279 276 277 280 277 268 261 259 258 257 257 256 254 251 249 252
74 73 75 77 79 78 78 96 135 179 197 235 256 259 262 261 256 252 262 274 280 280 281 283 282 277 279 284 281 271 278 263 282 270 263 258 255 255 256 254 253 252 251
65 65 67 69 71 74 77 81 79 77 68 46 30 14 331 268 265 269 269 269 269 272 278 284 280 277 277 278 279 277 273 268 275 287 278 280 266 255 256 255 253 251 251
60 56 52 52 55 52 50 54 55 55 54 47 41 34 29 5 326 309 304 300 295 290 282 275 278 281 277 275 274 275 275 271 271 269 280 278 273 275 272 264 259 255 254
63 59 54 47 50 48 44 43 42 41 38 28 24 18 16 12 9 3 351 335 322 309 297 291 284 279 274 272 272 273 271 270 269 271 274 278 279 276 272 272 269 265 260
Wind_Speed_850mb
29 37 39 38 37 39 38 38 33 28 23 20 17 15 14 13 13 14 9 4 2 1 4 5 7 8 7 8 7 9 10 13 18 16 17 15 19 18 17 19 17 14 13
24 37 41 40 38 37 38 36 34 29 25 22 19 16 16 17 17 14 12 10 7 2 1 2 5 5 6 6 6 9 11 14 18 18 13 11 11 12 16 19 17 18 16
24 32 42 41 39 37 35 34 32 30 27 24 21 20 17 15 14 12 10 6 6 3 3 2 2 3 2 1 3 7 11 15 17 16 12 9 6 9 12 14 15 15 14
15 28 41 42 39 38 36 34 31 29 27 25 24 22 20 14 15 14 13 14 13 8 7 4 3 4 3 2 4 8 12 15 14 12 13 8 4 5 13 15 12 10 10
15 22 37 42 41 39 37 35 34 31 28 26 24 25 22 14 17 18 18 19 19 10 7 6 6 6 4 5 8 12 16 18 14 11 19 8 1 2 5 12 11 10 6
15 19 31 42 43 42 40 38 35 32 30 27 26 27 25 20 19 20 22 23 22 14 9 9 8 7 5 6 10 15 20 21 18 15 13 11 8 9 16 12 10 8 7
17 20 26 40 44 43 42 40 38 35 32 29 30 28 24 23 25 20 23 24 20 15 12 11 9 6 4 6 9 14 18 22 21 19 19 18 15 15 17 10 11 9 7
14 19 24 30 42 44 44 43 40 37 35 31 31 30 28 27 30 16 21 21 19 16 14 10 9 7 7 8 9 11 16 18 19 20 21 19 22 21 22 5 9 11 11
14 19 24 28 35 44 46 45 44 42 39 36 35 35 31 29 31 18 21 21 19 17 14 12 10 10 11 10 10 10 14 16 16 19 22 23 20 26 27 21 13 13 14
18 21 23 28 33 38 45 47 46 44 42 41 41 38 35 36 37 22 21 21 20 19 15 13 14 14 14 13 12 13 15 17 17 18 20 23 24 25 27 23 18 18 19
24 26 27 30 33 37 40 45 48 47 44 43 43 41 43 43 40 29 23 23 21 21 17 15 17 18 18 16 15 15 16 18 17 17 18 21 23 22 24 23 21 20 19
31 30 33 35 35 36 41 45 50 48 46 45 46 45 47 47 42 35 26 29 27 25 22 19 21 22 21 20 19 19 19 20 18 18 20 20 22 21 23 23 23 23 19
41 32 34 37 39 39 42 44 51 53 49 49 49 50 49 49 46 42 35 34 32 30 28 25 25 26 25 24 23 22 23 23 20 21 22 23 23 22 22 23 25 24 21
41 38 34 31 34 38 40 42 47 54 54 54 54 53 53 53 50 47 42 37 38 33 31 30 29 32 31 30 28 28 27 26 24 24 24 25 25 25 25 26 25 24 23
42 39 37 33 30 30 34 37 43 47 51 54 54 55 54 55 53 51 50 48 44 40 35 34 34 37 37 36 34 33 32 31 29 27 27 27 27 27 27 28 26 24 23
39 43 39 41 33 31 32 31 34 40 40 41 43 46 51 52 52 54 57 57 50 45 39 39 39 40 41 42 41 39 38 36 34 32 31 30 30 29 29 30 30 27 27
32 37 33 31 30 31 32 30 28 32 38 38 39 36 37 48 51 49 45 48 46 42 41 43 44 45 46 47 46 45 44 42 41 39 37 35 34 33 32 33 34 28 29
14 26 26 26 19 21 30 29 26 29 35 34 35 36 36 41 44 44 45 46 43 39 42 45 47 47 46 49 50 50 50 49 47 45 44 42 39 38 38 37 39 36 36
13 13 23 23 21 24 29 28 27 26 29 29 31 32 33 35 38 43 41 39 40 39 43 46 48 49 49 51 52 55 57 56 53 52 50 49 45 44 42 40 42 38 43
16 15 17 17 18 22 21 19 19 20 20 24 23 23 27 30 32 35 37 38 41 43 45 47 49 51 53 53 55 58 61 62 61 61 59 56 52 52 47 44 44 47 54
19 15 15 12 11 9 14 18 15 15 14 16 18 21 21 23 24 28 31 34 38 42 43 44 48 51 55 55 58 63 67 68 69 69 68 63 63 60 56 51 49 52 58
50 42 32 27 20 17 12 10 9 14 15 16 20 23 23 25 21 17 23 29 33 37 40 43 48 52 53 54 57 63 61 64 72 78 75 71 68 67 66 61 57 58 61
60 58 53 48 41 33 22 12 8 6 5 8 11 13 15 18 20 18 15 19 25 33 37 39 43 49 55 53 56 57 26 23 37 47 59 69 76 77 74 70 66 65 66
52 47 45 44 44 42 35 31 24 22 20 22 19 14 7 8 13 16 17 19 23 30 34 36 38 43 49 55 56 61 66 77 76 59 49 37 52 71 78 78 75 74 73
44 44 42 38 38 37 34 31 28 28 29 24 20 19 16 11 11 15 21 24 25 26 28 30 35 41 48 54 57 58 64 70 78 90 84 75 74 64 64 72 77 79 79
37 37 36 35 36 34 30 30 29 27 24 20 21 24 26 25 22 21 19 22 26 29 32 35 36 34 39 50 56 60 64 71 69 72 84 94 96 92 89 83 82 80 81
Wind_Direction_850mb
173 181 188 185 188 189 186 181 179 180 180 179 175 174 170 165 153 153 173 195 195 21 19 34 74 83 90 97 111 112 112 117 117 110 99 98 101 97 86 91 89 99 98
175 177 190 192 195 196 194 190 186 184 187 189 186 189 191 189 178 181 205 215 236 272 311 39 51 58 65 83 108 117 118 128 134 140 127 111 134 119 104 96 97 82 88
173 181 189 196 200 201 201 199 196 193 193 195 196 201 197 198 191 187 186 245 279 260 259 281 20 19 25 71 148 141 144 147 147 139 117 73 129 157 147 126 120 133 114
173 187 190 198 203 206 207 206 204 203 203 203 204 208 218 204 206 225 247 264 271 264 225 255 300 313 297 210 209 183 170 173 171 152 143 116 86 148 170 164 161 162 152
187 192 198 202 206 209 212 212 210 212 213 213 212 207 220 210 214 230 241 252 264 273 257 262 286 281 270 248 207 198 192 195 195 164 151 136 115 174 157 168 180 192 202
212 199 201 207 209 211 214 216 218 220 217 212 210 205 233 235 233 234 239 244 257 261 261 276 276 271 255 220 206 199 201 206 209 201 186 167 199 223 274 216 184 195 214
222 214 208 209 213 215 217 218 219 221 221 215 216 222 226 253 256 246 229 235 246 255 264 272 267 263 219 200 191 196 206 208 213 218 216 213 216 250 266 207 199 208 221
234 225 219 215 217 219 219 221 222 224 222 218 223 226 242 254 261 236 234 235 247 255 264 258 255 237 212 204 197 197 212 216 215 221 225 228 234 239 265 251 231 241 241
239 234 229 225 220 222 224 223 224 226 226 221 226 235 246 247 260 252 245 240 249 260 264 265 257 221 209 208 214 215 224 231 225 230 235 241 242 247 266 281 257 255 256
257 247 239 233 231 227 225 226 227 228 227 224 226 235 240 250 261 267 252 249 254 256 254 250 234 221 220 221 225 227 235 243 242 244 243 247 253 256 262 267 260 257 255
270 262 250 241 237 234 233 230 228 226 227 225 227 231 236 245 257 268 276 257 253 255 255 245 232 226 227 230 235 241 245 250 252 255 251 251 256 262 262 265 264 261 263
273 280 271 255 245 239 235 233 231 230 221 224 228 232 235 243 253 261 272 265 263 263 260 248 234 233 235 239 242 245 248 251 254 256 255 256 258 258 262 266 267 267 266
285 269 275 265 253 246 240 235 230 231 231 228 230 234 240 245 252 259 264 269 261 260 261 255 246 243 244 247 250 251 250 255 258 258 258 261 261 260 260 263 267 268 266
285 282 269 269 259 255 250 241 235 233 234 235 237 240 242 248 254 259 265 274 270 261 257 254 247 245 246 249 251 252 253 256 258 261 263 266 266 264 262 262 265 264 264
267 276 267 257 261 255 257 254 242 236 234 237 239 243 245 248 254 260 268 273 275 263 259 259 253 249 249 250 251 253 255 257 259 260 262 262 263 263 264 269 270 269 267
266 261 264 254 258 256 256 262 261 249 242 239 240 243 245 241 248 258 267 272 274 263 260 262 260 256 254 254 254 255 256 258 258 258 259 260 261 262 263 263 266 265 248
281 256 249 245 249 252 254 259 266 263 255 253 251 250 249 247 252 270 272 272 279 259 261 262 261 257 253 252 253 255 255 255 256 258 259 259 259 259 258 258 260 258 237
251 237 223 209 215 238 241 248 257 262 253 248 251 248 259 251 251 272 277 278 285 270 267 266 264 263 262 259 257 255 254 254 255 256 257 257 257 258 256 255 253 253 243
81 152 181 185 184 197 222 232 239 245 249 250 255 259 259 262 266 270 273 275 277 273 275 275 270 268 267 267 267 264 261 257 254 254 255 256 256 255 253 251 249 244 251
96 113 137 148 154 176 196 215 227 232 232 240 247 247 256 264 269 274 273 269 270 273 281 281 279 277 275 273 270 266 262 261 260 259 258 257 258 256 255 252 246 242 247
108 119 116 132 125 171 189 194 194 204 215 221 236 251 256 263 273 279 279 278 282 282 285 286 283 280 279 278 276 272 268 264 259 258 257 257 257 258 256 253 249 246 254
77 78 81 83 86 93 99 129 177 211 223 238 244 246 254 258 263 282 289 283 282 282 282 278 279 283 283 279 276 277 280 277 268 261 259 258 257 257 256 254 251 249 252
74 73 75 77 79 78 78 96 135 179 197 235 256 259 262 261 256 252 262 274 280 280 281 283 282 277 279 284 281 271 278 263 282 270 263 258 255 255 256 254 253 252 251
65 65 67 69 71 74 77 81 79 77 68 46 30 14 331 268 265 269 269 269 269 272 278 284 280 277 277 278 279 277 273 268 275 287 278 280 266 255 256 255 253 251 251
60 56 52 52 55 52 50 54 55 55 54 47 41 34 29 5 326 309 304 300 295 290 282 275 278 281 277 275 274 275 275 271 271 269 280 278 273 275 272 264 259 255 254
63 59 54 47 50 48 44 43 42 41 38 28 24 18 16 12 9 3 351 335 322 309 297 291 284 279 274 272 272 273 271 270 269 271 274 278 279 276 272 272 269 265 260